Probability
0 0 0 0 0 0 0 0 0 0 0 0 0 0 0 0 0 1 2 2 2 3 4 5 5 4 3 4 4 4 4 5 6 5 4 3 3 3 3 3 3 3 3
0 0 0 0 0 0 0 0 0 0 0 0 0 0 0 0 0 0 1 1 1 2 3 5 5 4 3 4 4 3 3 4 4 4 3 2 2 3 3 3 3 3 2
0 0 0 0 0 0 0 0 0 0 0 1 1 0 0 0 0 0 0 0 0 0 2 3 3 3 2 3 3 2 1 1 2 1 1 1 1 2 3 3 3 2 1
0 0 0 0 0 0 0 0 0 0 0 1 1 1 0 0 0 0 0 0 0 0 0 1 1 1 1 1 1 1 0 0 0 0 0 0 1 2 3 3 3 2 2
0 0 0 0 0 0 0 0 0 0 0 0 1 1 0 0 0 0 0 0 0 0 0 0 0 0 1 0 0 0 0 0 0 0 0 0 1 2 2 2 2 1 2
0 0 1 1 1 0 0 0 0 0 0 0 0 0 0 0 0 0 0 0 0 0 0 0 0 0 0 0 0 0 0 0 0 0 0 0 0 1 1 1 1 1 2
0 0 1 2 1 0 0 0 0 0 0 0 0 0 0 0 0 0 0 0 0 0 0 0 0 0 0 0 0 0 0 0 0 0 0 0 0 0 0 0 0 0 1
0 0 1 1 1 0 0 0 0 0 0 0 0 0 0 0 0 0 0 0 0 0 0 0 0 0 0 0 0 0 0 0 0 0 0 0 0 0 0 1 0 0 1
0 0 0 1 1 0 0 0 0 0 0 0 0 0 0 0 0 0 0 0 0 0 0 0 0 0 0 0 0 0 0 0 0 0 0 0 0 0 0 0 0 0 1
0 0 0 0 0 0 0 0 0 0 0 0 0 0 0 0 0 0 0 0 0 0 0 0 0 0 0 0 0 0 0 0 0 0 0 0 0 0 0 0 0 0 1
0 0 0 0 0 0 0 0 0 0 0 0 0 0 0 0 0 0 0 0 0 0 0 0 0 0 0 0 0 0 0 0 0 0 0 0 0 0 0 0 0 0 0
0 0 0 0 0 0 0 0 0 0 0 0 0 0 0 0 0 0 0 0 0 0 0 0 0 0 0 0 0 0 0 0 0 0 0 0 1 1 0 0 0 0 0
0 0 0 0 0 0 0 0 0 0 0 0 0 0 0 0 0 0 0 0 0 0 0 0 0 0 0 0 0 0 0 0 0 0 0 1 2 1 0 0 0 0 0
0 0 0 0 0 0 0 0 0 0 0 0 0 0 0 0 0 0 0 0 0 0 0 0 0 0 0 0 0 0 0 0 0 0 0 1 2 1 1 1 1 1 1
0 0 0 0 0 0 0 0 0 0 0 0 0 0 0 0 0 0 0 0 0 0 0 0 0 0 0 0 0 0 0 0 0 0 0 1 1 1 2 3 3 3 2
0 0 0 0 0 0 0 0 0 0 0 0 0 0 0 0 0 0 0 0 0 0 0 0 0 0 0 0 0 0 0 0 0 0 0 0 0 1 2 3 4 4 4
0 0 0 0 0 0 0 0 0 0 0 0 0 0 0 0 0 0 0 0 0 0 0 0 0 0 0 0 0 0 0 0 0 0 0 0 0 0 1 1 3 4 4
0 0 0 0 0 0 0 0 0 0 0 0 0 0 0 0 0 0 0 0 0 0 0 0 0 0 0 0 0 0 0 0 0 0 0 0 0 0 0 0 1 3 4
0 0 0 0 0 0 0 0 0 0 0 0 0 0 0 0 0 0 0 0 0 0 0 0 0 0 0 0 0 0 0 0 0 0 0 0 0 0 0 0 1 2 2
0 0 0 0 0 0 0 0 0 0 0 0 0 0 0 0 0 0 0 0 0 0 0 0 0 0 0 0 0 0 0 0 0 0 0 0 0 0 0 0 0 1 1
0 0 0 1 0 0 0 0 0 0 0 0 0 0 0 0 0 0 0 0 0 0 0 0 0 0 0 0 0 0 0 0 0 0 0 0 0 0 0 0 0 0 0
0 0 0 0 0 0 0 0 0 0 0 0 0 0 0 0 0 0 0 0 0 0 0 0 0 0 0 0 0 0 0 0 0 0 0 0 0 0 0 0 0 0 0
0 0 0 0 0 0 0 0 0 0 0 0 0 0 0 0 0 0 0 0 0 0 0 0 0 0 0 0 0 0 0 0 0 0 0 0 0 0 0 0 0 0 0
0 0 0 0 0 0 0 0 0 0 0 0 0 0 0 0 0 0 0 0 0 0 0 0 0 0 0 0 0 0 0 0 0 0 0 0 0 0 0 0 0 0 0
0 0 0 0 0 0 0 0 0 0 0 0 0 0 0 0 0 0 0 0 0 0 0 0 0 0 0 0 0 0 0 0 0 0 0 0 0 0 0 0 0 0 0
0 0 0 0 0 0 0 0 0 0 0 0 0 0 0 0 0 0 0 0 0 0 0 0 0 0 0 0 0 0 0 0 0 0 0 0 0 0 0 0 0 0 0
Wind_Speed
2 2 2 4 6 7 7 8 8 8 9 9 9 9 9 9 10 11 11 11 12 12 11 11 11 11 10 10 10 10 10 10 10 9 9 8 7 7 6 5 5 3 5
1 1 2 4 6 6 7 7 8 8 8 9 9 9 9 9 10 10 11 11 11 12 12 11 11 12 11 11 11 10 10 9 10 10 9 7 7 7 6 6 5 3 5
1 0 1 4 6 6 7 8 8 9 9 9 8 8 9 9 10 10 10 11 11 11 11 11 11 11 12 11 11 10 10 10 10 10 8 4 4 7 6 6 5 5 4
2 1 2 5 6 7 7 8 8 9 9 9 9 9 9 9 10 10 10 10 11 11 11 11 11 11 11 11 10 10 10 10 10 9 5 4 4 7 8 7 6 6 4
2 2 2 5 6 7 7 8 8 9 9 9 9 9 10 9 10 9 9 10 10 10 11 11 11 11 11 11 11 10 10 10 10 8 5 4 4 7 9 8 8 8 6
3 2 2 4 5 6 7 7 8 8 9 9 9 9 9 9 9 9 9 9 9 10 11 11 11 11 11 10 10 10 10 11 9 5 4 4 3 7 8 9 9 9 9
3 2 2 4 6 6 7 8 8 8 8 9 9 8 8 8 8 8 8 9 9 10 11 11 11 11 10 10 10 10 10 10 6 4 4 4 4 7 8 8 8 9 9
3 3 3 5 6 6 7 8 8 8 9 9 9 9 9 9 8 8 8 9 9 10 10 10 10 11 10 10 11 11 10 8 6 5 3 3 5 8 8 8 8 9 8
3 3 3 3 4 6 7 7 8 8 9 9 9 9 9 9 10 9 9 9 9 9 10 10 10 10 10 10 10 11 11 10 5 3 4 3 6 8 8 8 8 8 8
4 4 3 4 4 4 3 6 7 8 8 8 8 9 9 9 9 9 9 9 9 10 10 10 10 11 11 11 10 10 10 8 4 4 3 4 8 9 9 9 8 9 8
3 3 3 3 3 3 3 5 5 6 7 7 6 8 8 5 5 6 8 10 10 10 10 11 10 11 10 10 10 10 8 4 4 3 3 6 8 8 8 8 8 9 9
1 1 1 2 2 3 3 3 3 3 4 4 4 5 4 4 4 6 8 9 9 9 10 10 11 10 8 5 6 7 3 4 3 3 3 8 8 8 7 8 8 8 9
2 1 1 1 2 2 2 2 2 2 3 3 4 4 3 3 3 4 3 4 5 6 5 6 6 4 4 3 3 3 4 4 3 3 4 8 8 7 7 7 8 8 9
2 1 1 1 2 2 2 2 2 2 2 2 3 3 3 2 3 3 2 3 3 2 3 3 3 4 4 4 4 4 4 3 3 3 4 9 8 7 7 8 8 8 8
3 2 1 2 2 1 2 1 2 1 1 1 2 2 3 2 2 2 2 2 3 2 3 3 3 4 4 4 4 4 4 4 4 4 4 9 9 8 8 8 8 9 9
3 3 2 2 2 2 1 1 1 1 1 1 1 1 2 2 2 2 2 2 3 2 2 2 3 3 3 3 4 4 4 3 4 4 4 6 9 9 9 8 8 8 8
3 3 3 3 2 2 2 1 1 1 1 1 1 1 1 2 2 2 2 2 2 2 3 3 3 3 3 3 3 3 3 4 4 4 4 4 5 8 9 8 8 8 8
2 2 2 3 3 2 2 1 1 1 1 1 1 1 1 1 2 2 2 1 2 2 2 2 2 3 3 3 2 3 3 3 4 4 4 4 4 4 7 10 8 8 7
2 2 2 2 2 2 2 1 1 1 1 0 1 1 1 1 2 2 1 1 2 2 2 2 2 2 2 2 2 2 3 3 3 4 4 4 4 4 4 7 9 9 8
2 3 2 2 1 2 1 1 1 1 1 0 1 1 1 1 2 2 1 2 2 2 2 2 2 3 2 2 2 3 2 2 2 3 3 3 4 4 4 5 5 6 9
3 2 2 2 1 1 1 1 1 0 0 0 0 1 1 1 2 2 2 2 2 2 1 2 2 2 2 1 2 3 3 3 3 2 2 3 4 4 4 4 3 3 4
2 1 1 2 1 1 1 1 1 1 1 0 0 1 1 2 2 2 2 1 2 2 2 2 2 1 1 2 2 2 3 4 3 3 2 2 3 3 4 4 4 4 4
1 1 1 1 1 1 1 1 2 2 2 2 1 1 1 1 1 2 2 2 2 2 1 1 1 2 1 1 1 2 2 1 2 3 2 2 3 3 3 3 4 4 4
2 1 1 1 1 1 2 2 3 2 1 1 1 0 1 0 0 1 2 2 2 1 1 1 1 1 2 1 1 1 1 2 1 2 3 3 3 3 3 3 4 4 4
2 1 1 1 1 1 1 2 3 2 1 0 0 0 0 1 1 0 1 2 2 1 1 1 1 1 1 2 1 1 1 1 1 1 2 3 3 3 2 2 2 2 3
1 1 1 1 1 1 1 1 2 3 2 1 0 0 0 1 1 1 0 1 2 1 1 1 1 2 1 2 1 1 1 1 1 1 1 2 3 3 3 2 2 2 2
Wind_Direction
299 299 1 63 66 68 68 70 67 66 65 66 67 69 71 72 71 67 66 67 68 70 74 75 74 73 74 76 77 78 76 75 73 71 66 62 62 66 67 68 75 67 84
239 295 58 74 75 75 74 73 69 68 67 68 69 69 72 74 73 72 70 69 69 70 71 73 73 71 71 73 73 74 74 73 71 67 61 52 52 59 64 67 67 69 76
115 31 65 80 81 78 78 76 72 68 69 71 71 72 75 78 75 73 72 71 71 72 72 73 72 70 70 70 70 70 71 70 70 64 53 30 37 55 59 64 67 66 70
112 65 74 87 85 79 78 78 74 70 69 70 71 73 77 80 79 77 72 70 72 73 73 73 74 72 71 69 69 70 69 66 65 58 41 23 26 52 55 60 61 59 57
89 58 64 87 86 83 81 80 77 74 71 70 72 74 77 76 78 78 74 72 74 74 74 73 73 71 73 72 70 73 73 68 63 50 32 22 20 49 53 55 55 52 49
82 53 53 83 84 83 81 80 77 73 70 70 71 73 73 74 76 77 75 74 75 75 75 75 73 71 74 74 71 73 75 70 57 41 30 18 15 48 54 55 55 52 52
89 52 47 83 83 81 78 78 77 73 71 70 69 69 70 71 72 72 73 76 76 75 73 73 72 70 71 72 70 70 71 68 58 41 27 17 23 47 53 56 56 56 54
99 66 42 70 79 79 78 76 76 75 73 70 68 68 67 65 66 68 69 73 74 72 69 69 70 68 68 69 68 67 68 64 56 42 27 17 36 51 53 55 57 58 57
77 64 41 40 53 63 73 77 77 75 73 69 67 67 65 63 63 64 64 70 72 70 68 68 69 67 65 67 65 63 63 60 50 33 31 26 43 54 55 54 54 55 53
63 54 44 40 43 43 48 68 73 74 73 69 68 67 63 56 55 57 59 66 67 67 66 66 65 64 64 63 62 61 60 52 37 28 20 38 47 52 51 50 51 51 50
67 46 47 44 40 42 51 58 61 68 66 63 60 63 57 41 37 42 53 62 63 62 61 61 60 60 59 58 57 54 51 39 30 24 22 41 46 50 50 50 51 51 51
128 71 54 54 49 48 54 52 40 46 47 49 49 47 46 43 37 43 44 54 57 57 55 56 56 53 51 45 45 45 39 30 30 18 29 38 44 50 51 52 50 49 52
167 126 80 78 68 65 57 60 48 46 45 46 48 48 47 45 40 38 34 32 37 45 42 45 47 43 48 47 44 40 37 34 23 15 20 35 43 48 52 54 52 52 54
138 134 115 110 96 79 75 70 67 62 56 49 42 47 53 49 43 34 37 29 33 35 41 42 48 42 46 47 48 45 40 35 25 12 18 32 38 44 52 57 57 57 55
165 169 155 134 121 104 86 79 77 69 68 65 54 49 61 61 47 40 34 38 38 40 46 46 50 48 43 41 45 48 41 32 26 22 12 26 34 39 45 55 58 57 56
181 182 172 155 152 131 124 117 109 91 80 74 63 56 70 77 67 54 44 40 37 40 47 54 52 54 46 45 43 41 37 30 29 26 20 16 24 32 37 45 54 53 53
187 183 179 170 151 143 151 156 139 127 105 92 78 68 75 88 92 82 64 45 32 40 53 58 48 49 51 46 38 36 40 35 34 29 24 20 12 20 28 34 43 47 46
156 169 188 174 152 156 160 162 149 127 117 108 97 86 79 90 98 93 82 56 40 48 55 63 52 51 43 41 34 27 32 30 31 30 30 24 19 14 15 24 31 34 34
135 133 146 164 159 160 152 142 127 109 106 115 100 88 76 84 94 98 96 71 60 61 56 60 51 57 49 34 40 38 28 27 20 31 30 22 19 16 11 15 22 22 22
104 98 92 92 127 140 127 99 70 74 59 62 97 124 114 100 96 96 84 68 67 69 54 51 55 46 50 37 46 38 19 15 23 27 20 18 15 14 14 13 10 8 15
81 84 83 80 74 104 100 128 142 183 252 339 54 106 115 113 106 102 89 76 77 78 72 70 68 59 38 26 49 17 4 19 28 19 12 15 10 6 12 13 8 5 357
103 96 89 90 96 112 143 143 154 156 168 202 19 58 88 113 125 123 118 115 102 89 70 66 74 76 35 35 83 63 5 352 357 6 3 11 1 358 5 7 10 9 357
126 160 179 167 120 78 84 95 72 53 36 30 20 16 8 93 128 132 140 139 125 123 133 115 104 110 99 17 57 112 115 269 317 333 348 359 354 356 345 348 9 5 2
193 173 128 111 86 84 93 110 125 128 125 257 250 247 332 33 114 142 139 138 139 138 146 171 122 128 123 98 20 44 118 163 149 324 331 340 348 351 341 348 357 3 5
184 162 124 92 74 75 89 128 129 113 133 108 25 87 43 10 13 92 141 146 150 160 166 151 112 109 127 142 143 122 73 48 92 147 304 325 338 335 337 337 345 353 356
99 89 68 83 62 69 79 93 142 139 130 114 135 170 330 339 332 322 183 169 172 170 173 169 141 121 118 119 123 134 145 150 181 158 213 294 311 310 325 336 348 344 346